Wind_Speed
34 34 35 35 35 36 37 38 39 37 37 35 35 35 35 35 36 36 35 35 36 37 37 38 38 38 39 40 41 42 42 42 43 44 44 45 46 46 47 48 49 49 49 49
33 33 35 35 35 35 36 36 37 37 36 35 35 36 36 35 35 35 35 36 36 36 37 38 38 39 40 40 41 42 42 43 44 44 44 45 46 47 48 48 48 48 48 48
33 33 36 35 34 35 35 36 37 37 36 35 36 36 35 35 35 35 36 36 36 36 37 38 38 39 40 40 41 42 43 43 44 44 45 46 46 47 47 47 47 47 47 47
34 33 35 33 34 35 36 35 36 37 36 35 35 35 35 35 35 35 35 36 36 36 37 37 37 38 39 39 40 41 42 43 44 44 45 46 47 47 46 46 46 46 46 46
34 35 35 33 34 35 36 35 35 35 35 35 35 36 35 35 35 35 36 36 36 37 37 37 37 38 39 39 39 40 41 42 43 44 45 46 46 45 45 46 46 45 45 45
34 36 36 34 34 34 36 36 35 34 34 35 35 36 36 36 36 36 36 37 37 37 38 38 38 38 39 39 40 41 41 42 43 43 44 44 44 44 44 45 45 45 45 45
32 34 35 34 33 33 34 34 34 34 34 35 35 36 36 36 36 37 37 37 37 38 38 38 38 39 39 40 40 41 42 42 42 43 43 43 43 43 43 43 44 44 44 44
31 33 33 33 33 33 33 33 34 35 35 34 34 35 36 36 36 37 37 37 37 38 38 38 39 39 40 40 40 41 42 42 42 42 42 42 42 42 42 42 42 42 43 43
30 31 31 31 32 33 33 33 34 34 34 34 34 35 36 36 36 36 37 37 37 38 38 39 39 39 39 39 40 40 40 40 40 40 40 40 40 40 40 41 41 42 42 41
30 29 29 30 30 31 32 33 33 33 33 33 33 34 34 35 36 36 36 37 37 37 37 37 38 38 38 38 38 38 38 39 39 39 39 39 39 39 39 40 40 40 40 39
29 29 30 30 31 31 31 32 32 32 32 33 33 33 34 34 34 35 35 36 36 37 37 37 37 37 37 37 37 37 37 37 37 37 37 37 38 38 38 39 39 39 38 38
29 29 30 30 30 30 30 30 30 31 32 32 32 32 33 33 34 34 35 35 35 35 36 36 36 36 36 36 37 37 37 37 37 37 37 37 36 36 37 37 38 38 37 37
30 29 30 30 30 30 29 29 29 29 30 31 32 32 33 33 33 34 34 34 34 34 35 35 35 35 36 36 36 36 36 35 35 35 36 36 36 36 35 36 36 36 36 36
30 30 29 29 29 29 28 29 29 30 30 31 32 32 32 33 33 33 33 33 33 34 34 34 35 34 34 34 34 34 34 34 34 34 34 34 34 35 34 34 34 34 34 35
28 29 29 29 29 29 29 29 30 31 32 32 32 32 32 32 32 32 33 33 33 34 34 34 34 33 33 33 33 33 33 33 33 33 33 34 34 33 33 33 33 33 33 33
28 28 28 29 29 29 29 30 30 30 31 31 31 31 31 31 31 32 32 32 32 32 33 33 32 32 32 33 33 33 33 32 33 33 33 33 32 32 32 32 32 32 32 32
26 26 27 28 28 28 29 29 30 30 30 30 30 30 30 30 30 30 30 30 30 30 31 31 31 31 32 32 32 32 32 32 32 32 32 32 32 32 31 31 31 31 31 31
26 26 27 27 27 27 28 28 28 28 28 29 29 29 29 29 29 29 29 28 29 29 30 30 30 31 31 31 31 31 31 31 31 31 31 31 31 31 30 30 30 30 30 30
26 26 26 26 27 27 28 28 27 27 28 28 28 28 27 27 27 27 27 28 28 29 29 30 30 30 31 31 31 31 31 31 31 31 31 30 30 30 30 30 30 30 29 29
26 26 26 26 27 27 27 27 27 27 27 27 26 26 26 27 27 27 27 28 29 30 30 30 30 30 30 30 30 30 31 31 31 30 30 30 30 29 29 29 29 28 28 27
26 26 26 26 26 27 27 27 26 26 26 26 26 26 26 26 27 27 27 28 29 29 30 30 30 30 30 30 30 30 30 30 30 30 30 29 29 29 28 28 28 28 27 27
26 25 25 25 25 26 26 25 25 26 26 26 26 26 27 27 27 27 28 28 29 29 29 30 30 30 30 30 30 30 30 30 30 29 29 29 28 28 27 27 27 27 26 26
24 24 24 24 24 24 24 24 24 25 26 26 26 27 27 27 27 27 28 28 29 29 29 30 30 30 30 30 30 29 29 29 28 28 28 27 27 27 27 27 27 26 26 26
24 24 24 24 24 24 24 24 24 25 25 26 26 26 27 27 28 28 28 28 29 29 30 30 30 30 29 29 29 28 27 27 27 26 26 26 26 26 26 26 26 26 26 25
24 24 24 25 25 25 25 25 25 25 25 26 26 27 28 28 28 28 28 29 29 29 29 29 29 29 28 27 26 26 26 26 26 25 25 25 25 25 25 25 25 25 24 24
24 25 25 25 25 25 25 25 25 25 26 26 27 27 28 28 28 28 28 28 28 28 28 28 27 27 26 26 25 25 25 25 25 24 24 23 23 23 23 24 24 24 24 23
25 25 25 25 25 25 25 25 26 26 26 26 27 27 27 28 28 28 28 28 27 27 27 27 26 26 26 25 25 24 24 24 23 23 22 22 22 22 23 23 23 23 23 23
Wind_Direction
270 270 271 272 273 273 274 275 276 278 278 278 278 278 279 278 279 279 277 277 276 276 275 274 274 274 274 274 275 275 275 275 275 276 276 277 277 277 278 279 280 279 279 278
273 272 273 273 273 274 275 275 277 278 278 278 277 278 278 278 279 279 278 278 277 276 275 275 274 274 275 276 276 277 277 276 277 277 277 278 278 279 280 280 280 279 279 278
277 276 275 273 275 276 277 277 278 279 278 277 276 277 278 279 279 279 279 278 278 277 276 277 276 275 276 276 277 278 278 277 277 278 279 279 280 280 280 280 280 280 279 279
277 277 276 277 276 276 277 277 277 277 277 277 278 278 278 279 279 278 278 279 279 279 278 278 278 277 277 278 278 279 279 279 279 279 280 280 280 280 280 280 281 281 280 279
278 278 278 277 278 278 278 277 277 277 278 278 278 278 278 278 278 278 278 279 279 279 279 279 280 280 279 279 279 280 280 280 280 280 281 281 281 280 280 280 281 281 280 279
279 280 280 279 278 278 277 276 277 277 278 278 279 277 277 278 278 278 279 279 279 280 280 281 281 281 281 280 280 280 280 281 281 281 282 282 281 280 280 280 281 281 281 279
281 281 281 280 279 278 277 278 277 277 278 279 278 278 278 278 278 279 280 281 281 281 282 282 282 282 281 280 280 281 282 282 282 282 282 282 281 281 281 281 282 282 282 280
285 283 282 282 280 278 279 279 279 278 279 279 278 278 279 279 280 281 282 282 282 282 282 283 282 282 281 280 281 282 283 283 282 283 283 283 281 280 280 282 282 282 282 281
284 285 285 282 281 280 278 279 279 279 278 278 279 279 279 280 281 282 283 283 283 283 283 283 283 282 282 282 283 284 284 284 284 284 284 283 282 281 281 282 282 283 283 281
283 284 282 281 280 280 279 278 278 279 279 280 281 282 281 281 282 283 284 284 283 283 283 283 283 283 283 283 284 283 283 284 284 284 284 283 283 282 283 283 283 283 283 281
283 282 279 279 280 280 280 278 277 278 280 281 282 282 283 283 284 284 284 284 283 282 282 283 283 283 283 284 284 284 284 284 283 283 284 284 285 284 284 284 284 284 283 282
283 283 281 279 280 281 279 278 278 279 281 283 283 283 284 285 285 284 285 284 283 283 283 284 284 284 284 283 283 284 284 284 283 282 283 284 284 285 285 285 285 285 284 283
282 282 282 282 281 280 279 280 280 282 283 283 284 285 286 286 285 286 286 286 285 285 284 285 285 284 284 284 284 284 284 284 283 283 284 285 285 286 286 287 287 286 286 285
282 282 282 283 283 282 281 282 283 283 284 285 285 285 286 286 286 286 285 285 286 286 286 286 286 286 285 285 285 285 285 285 285 285 286 286 286 287 287 287 287 287 286 286
284 283 283 285 284 283 283 284 285 285 285 286 287 286 286 286 286 286 286 286 287 287 288 287 287 287 287 287 286 287 286 286 286 286 286 287 288 288 289 289 289 288 288 287
284 284 284 285 285 284 284 285 287 287 287 287 288 287 287 287 288 288 287 288 288 289 289 289 289 288 288 288 287 287 286 286 286 286 286 288 289 290 290 290 290 290 289 289
286 284 284 284 285 286 287 288 289 289 288 288 289 288 288 288 288 288 288 289 290 291 291 291 291 291 290 289 288 288 287 287 287 287 287 288 289 289 290 290 290 290 290 290
288 286 285 284 285 287 289 290 290 289 288 289 289 289 288 288 289 288 289 291 292 293 294 294 294 293 292 291 290 289 289 289 288 288 289 289 288 289 289 289 290 290 291 291
292 291 289 288 287 287 289 290 290 289 289 289 290 290 290 291 291 290 290 292 293 294 296 296 296 295 294 292 291 290 290 289 289 289 289 288 288 288 289 290 290 291 291 290
295 293 292 291 289 289 290 290 291 291 291 291 291 291 292 293 293 292 292 293 294 296 297 297 297 296 295 294 294 293 291 290 290 289 289 288 288 288 289 290 291 291 290 290
296 295 294 292 291 290 290 290 290 290 290 290 291 292 293 294 294 293 294 295 296 297 298 298 298 297 296 296 296 295 293 291 290 290 289 288 288 288 289 290 291 291 290 290
296 296 296 295 294 293 292 290 289 288 289 289 290 291 293 294 295 295 295 296 297 298 299 299 299 299 298 297 297 296 294 293 292 291 290 289 288 288 288 290 291 291 291 290
296 296 297 297 297 296 294 292 291 290 290 290 290 292 293 294 295 295 296 297 298 299 299 300 301 301 300 298 297 296 295 294 293 292 290 289 288 288 288 288 289 290 290 290
296 296 297 298 298 298 296 294 292 291 291 291 291 293 294 295 296 296 296 297 298 299 300 301 302 302 301 299 298 297 296 295 294 294 292 290 289 289 288 288 289 290 290 290
296 296 296 297 297 297 297 296 294 293 293 293 293 294 296 296 296 296 297 298 299 300 300 301 302 302 301 300 298 297 297 296 296 295 294 292 291 290 290 290 290 290 290 291
296 296 297 297 297 297 297 297 296 295 294 295 296 297 297 297 297 296 297 298 299 300 301 302 303 303 302 301 299 298 298 297 296 296 295 294 293 292 292 292 292 291 291 291
297 297 298 298 297 297 297 298 298 297 296 296 297 298 298 298 297 297 297 298 299 300 301 302 303 304 303 302 301 300 299 298 296 295 294 294 294 294 294 294 293 293 292 292
Height
5591 5590 5590 5589 5589 5588 5587 5586 5585 5585 5584 5585 5582 5580 5578 5577 5575 5573 5572 5571 5570 5568 5567 5566 5565 5563 5561 5559 5557 5556 5554 5552 5551 5549 5547 5546 5545 5543 5542 5540 5538 5536 5534 5532
5581 5580 5579 5578 5578 5578 5577 5576 5575 5574 5574 5574 5571 5570 5568 5566 5564 5563 5562 5560 5559 5558 5556 5555 5553 5551 5550 5547 5546 5544 5542 5540 5538 5536 5535 5533 5532 5530 5528 5526 5524 5522 5520 5518
5571 5570 5567 5568 5570 5568 5567 5566 5565 5564 5565 5562 5561 5559 5558 5556 5554 5553 5551 5550 5548 5547 5545 5543 5542 5540 5538 5536 5534 5532 5530 5528 5526 5524 5522 5520 5519 5517 5515 5512 5510 5508 5506 5504
5559 5560 5558 5562 5559 5558 5557 5556 5554 5553 5553 5552 5550 5549 5547 5545 5544 5542 5541 5539 5538 5536 5534 5532 5530 5528 5526 5524 5522 5520 5518 5516 5513 5512 5510 5507 5505 5503 5501 5499 5497 5495 5492 5490
5549 5548 5548 5550 5549 5547 5546 5545 5544 5543 5542 5541 5540 5538 5537 5535 5533 5532 5530 5528 5527 5525 5523 5521 5519 5517 5515 5513 5511 5508 5506 5504 5502 5499 5497 5495 5492 5490 5488 5486 5484 5481 5479 5477
5540 5538 5538 5541 5539 5536 5535 5535 5535 5533 5531 5530 5529 5528 5527 5525 5523 5521 5519 5518 5516 5514 5512 5510 5508 5506 5503 5501 5499 5497 5494 5492 5489 5487 5484 5482 5479 5477 5475 5473 5470 5468 5466 5463
5530 5528 5528 5529 5528 5526 5526 5526 5524 5522 5520 5519 5517 5517 5516 5514 5512 5510 5508 5507 5505 5503 5501 5499 5496 5494 5492 5489 5487 5485 5482 5480 5477 5474 5472 5469 5467 5464 5462 5460 5458 5455 5452 5450
5521 5519 5522 5519 5517 5516 5515 5513 5512 5511 5509 5508 5507 5505 5504 5502 5501 5499 5497 5495 5493 5491 5489 5487 5485 5482 5480 5478 5475 5472 5470 5467 5464 5462 5459 5457 5454 5452 5449 5447 5445 5442 5439 5437
5513 5513 5510 5508 5506 5505 5504 5503 5501 5500 5499 5498 5496 5495 5493 5492 5490 5488 5486 5484 5482 5480 5478 5475 5473 5470 5468 5465 5463 5460 5458 5455 5452 5450 5447 5444 5442 5439 5437 5434 5432 5429 5426 5424
5503 5502 5501 5499 5497 5495 5494 5493 5491 5490 5489 5488 5486 5484 5483 5481 5479 5477 5475 5473 5470 5468 5466 5463 5461 5458 5456 5453 5451 5448 5446 5443 5441 5438 5435 5433 5430 5427 5425 5422 5419 5417 5414 5412
5494 5493 5491 5489 5487 5486 5484 5482 5481 5480 5478 5477 5475 5474 5472 5470 5468 5466 5464 5461 5459 5457 5454 5452 5449 5447 5444 5442 5440 5437 5435 5432 5430 5427 5424 5421 5419 5416 5413 5410 5407 5405 5402 5400
5485 5484 5482 5480 5478 5476 5475 5473 5472 5470 5468 5466 5465 5463 5461 5459 5457 5455 5453 5450 5448 5445 5443 5440 5438 5436 5433 5431 5428 5426 5423 5421 5418 5416 5413 5410 5408 5405 5401 5399 5396 5393 5390 5388
5476 5474 5473 5471 5469 5467 5466 5464 5462 5460 5458 5457 5455 5453 5451 5449 5447 5444 5442 5439 5437 5435 5432 5429 5427 5424 5422 5420 5417 5415 5412 5410 5407 5405 5402 5400 5397 5394 5391 5388 5385 5382 5379 5377
5467 5465 5464 5462 5460 5458 5456 5455 5453 5451 5449 5447 5445 5443 5441 5439 5436 5434 5431 5429 5427 5424 5422 5419 5416 5414 5411 5409 5407 5404 5402 5399 5397 5394 5392 5389 5386 5383 5380 5378 5375 5372 5369 5366
5458 5456 5455 5453 5451 5449 5447 5445 5443 5441 5439 5437 5435 5433 5431 5428 5426 5424 5421 5419 5416 5414 5411 5409 5406 5404 5401 5399 5396 5394 5391 5389 5386 5384 5381 5379 5376 5373 5370 5367 5364 5362 5359 5356
5449 5447 5446 5444 5442 5440 5438 5436 5434 5432 5430 5428 5425 5423 5421 5419 5416 5414 5411 5409 5406 5404 5401 5399 5396 5394 5391 5389 5386 5384 5381 5379 5376 5374 5371 5368 5366 5363 5360 5357 5354 5351 5349 5346
5441 5439 5437 5435 5433 5431 5429 5427 5425 5423 5420 5418 5416 5414 5411 5409 5407 5404 5402 5399 5397 5394 5392 5389 5387 5384 5381 5379 5376 5374 5371 5369 5366 5363 5361 5358 5356 5353 5350 5348 5345 5342 5339 5336
5432 5430 5428 5426 5424 5423 5420 5418 5416 5413 5411 5409 5407 5405 5402 5400 5398 5395 5393 5391 5388 5385 5383 5380 5377 5374 5372 5369 5366 5364 5361 5359 5356 5353 5351 5348 5346 5343 5341 5338 5335 5332 5329 5326
5424 5422 5420 5418 5416 5414 5412 5409 5407 5405 5403 5401 5398 5396 5394 5391 5389 5387 5384 5382 5380 5377 5374 5371 5368 5365 5362 5359 5357 5354 5351 5349 5346 5343 5341 5338 5336 5334 5331 5328 5326 5323 5320 5317
5416 5413 5411 5409 5407 5405 5403 5401 5399 5396 5394 5392 5390 5388 5385 5383 5380 5378 5376 5373 5371 5368 5365 5362 5359 5356 5353 5350 5347 5344 5341 5339 5336 5333 5331 5329 5326 5324 5321 5319 5316 5313 5311 5308
5408 5405 5403 5401 5398 5396 5394 5392 5390 5388 5386 5384 5382 5380 5377 5375 5372 5370 5367 5365 5362 5359 5356 5352 5349 5346 5343 5340 5337 5334 5331 5329 5326 5323 5321 5319 5316 5314 5312 5309 5307 5304 5302 5299
5400 5398 5395 5393 5390 5388 5385 5383 5381 5380 5378 5376 5374 5371 5369 5367 5364 5361 5359 5356 5353 5350 5347 5344 5340 5337 5334 5331 5328 5325 5322 5319 5316 5314 5311 5309 5307 5305 5302 5300 5298 5295 5293 5291
5392 5390 5387 5385 5382 5380 5377 5375 5373 5371 5369 5367 5365 5363 5361 5358 5355 5353 5350 5347 5344 5341 5338 5335 5331 5328 5325 5322 5319 5316 5313 5310 5307 5305 5302 5300 5298 5296 5294 5291 5289 5287 5284 5282
5385 5382 5380 5377 5375 5372 5370 5368 5365 5363 5361 5359 5357 5355 5352 5350 5347 5344 5341 5338 5335 5332 5329 5326 5323 5319 5316 5313 5310 5307 5304 5301 5298 5296 5293 5291 5289 5287 5284 5282 5280 5278 5276 5273
5377 5375 5373 5370 5368 5365 5363 5360 5357 5355 5353 5350 5348 5346 5343 5341 5338 5335 5332 5329 5326 5323 5320 5317 5313 5310 5307 5304 5301 5298 5295 5293 5290 5287 5285 5283 5280 5278 5276 5274 5271 5269 5267 5265
5370 5367 5365 5363 5360 5358 5355 5352 5350 5347 5345 5342 5339 5337 5334 5331 5328 5326 5323 5320 5317 5314 5311 5308 5305 5301 5298 5295 5292 5290 5287 5284 5282 5279 5277 5275 5272 5270 5268 5266 5263 5261 5259 5257
5362 5360 5357 5355 5352 5350 5347 5345 5342 5339 5337 5334 5331 5328 5325 5322 5319 5316 5314 5311 5308 5305 5302 5299 5296 5293 5290 5287 5284 5281 5279 5276 5274 5272 5269 5267 5265 5262 5260 5258 5256 5253 5251 5249